Showing default

TIROS 8, 716

Orbit data source: Space-Track

TIROS 8, 716 is a payload satellite owned by GSFC (US) in LEO that was launched on Sat, 21 Dec 1963 UTC via a THOR DELTA B launch vehicle from the Air Force Western Test Range (AFWTR). Payload-class satellites include a variety of spacecraft equipped with specific instruments for various scientific and technological missions. These include communications satellites like Starlink; space stations such as the ISS; scientific satellites like the Hubble; Earth observation satellites from companies like Planet Labs, Umbra, and HawkEye 360; GPS; miniature CubeSats for education and research; and military/defense satellites.

Loading next visibility...
Identifier
716, 1963-054A
Orbit
LEO
Country
Flag of USUS
Related business
Manufacturer
RCA/East Windsor
Mission
Non-operational spacecraft
Bus & Motor
TIROS, Unknown motor
Mass
120 kg wet, 120 kg dry
Launch date (UTC)
1963-12-21 (63 years ago)
Launch vehicle
THOR DELTA B
Launch site
Air Force Western Test Range (AFWTR)
Object type
Payload
Rocket body
Debris
Shape & HBR
CYL, 1.1 m
Radar Cross Section
Medium (>0.1 m² and <1 m²)

Expand to show TLE details & history
Last TLE update: 14 hours ago

TLE from 14 hours ago
0 TIROS 8
1 00716U 63054A   26264.39196064  .00000144  00000-0  51406-4 0  9999
2 00716  58.4948  39.7836 0025622  39.9962 320.2959 14.73255942329898
Epoch: 2026-09-21T09:24Z
TLE epoch observation values (Epoch: 2026-09-21T09:24:25.399Z)
Latitude
0.00003°
Longitude
-101.59467°
Altitude
638.274 km
Speed
7.547 km/s
True Right ascension
02h 39m 08s
True Declination
0° 00' 00"
Sunlit
Object was in full shadow at epoch
Visualization orbit readout
Latitude
Unknown
Longitude
Unknown
Altitude
Unknown
Speed
Unknown
Apparent Right ascension
Unknown
Apparent Declination
Unknown
Sunlit
N/A
Visualization observer readout
Local Sidereal Time
16:43:12
Azimuth
Unknown
Elevation
Unknown
Doppler factor
Unknown
Orbital elements
Apogee altitude
668.139 km
Perigee altitude
632.123 km
Semi-major axis
7,028.268 km
Eccentricity
0.00256
Inclination
58.4948°
RAAN
39.7836°
Arg. of periapsis
39.9962°
True anomaly
320.10787°
Mean anomaly
320.2959°
Eccentric anomaly
320.20193°
Mean motion
3.68358 °/min
Orbital period
97.73 mins
BSTAR
0.000051406
Loading maneuver chart data...
Computing Atmospheric mass density...
Loading historical data...
Loading historical data...
Loading historical data...
Loading historical data...
Loading historical data...
Loading historical data...
Loading historical data...
Other satellites on launch #54 in the year 1963 (1963-12-21 UTC)

Documentation

Showing up to 5 results
|